This demonstration page uses our WeatherBlox Daily Observations layout. Learn more.

Left ArrowRight Arrow

Hourly Observations for August 25, 2017

Temp ( °F °C ) Dew Point ( °F °C ) Humidity (%) Winds ( mph kmh ) Pressure ( in mb ) Visibility ( mi km ) Precip ( " mm )
12:51 am 00:51 Clear 79 26.1 53 11.7 41 41 S 3 6 29.73 1007 10 16.0934 N/A
1:51 am 01:51 Clear 77 25 54 12.2 45 45 ESE 6 9 29.73 1007 10 16.0934 N/A
2:51 am 02:51 Clear 78 25.6 56 13.3 47 47 E 7 11 29.73 1007 10 16.0934 N/A
3:51 am 03:51 Clear 76 24.4 57 13.9 52 52 E 6 9 29.75 1007 10 16.0934 N/A
4:51 am 04:51 Clear 73 22.8 56 13.3 55 55 ESE 6 9 29.76 1008 10 16.0934 N/A
5:51 am 05:51 Sunny 72 22.2 56 13.3 57 57 ESE 7 11 29.78 1008 10 16.0934 N/A
6:51 am 06:51 Sunny 76 24.4 57 13.9 52 52 ESE 9 15 29.79 1009 10 16.0934 N/A
7:51 am 07:51 Sunny 80 26.7 58 14.4 47 47 SE 10 17 29.8 1009 10 16.0934 N/A
8:51 am 08:51 Sunny 85 29.4 58 14.4 40 40 ESE 8 13 29.8 1009 10 16.0934 N/A
9:51 am 09:51 Sunny 87 30.6 58 14.4 37 37 ESE 7 11 29.79 1009 10 16.0934 N/A
10:51 am 10:51 Sunny 89 31.7 59 15 36 36 undefined N/A 29.78 1009 10 16.0934 N/A
11:51 am 11:51 Sunny 92 33.3 58 14.4 32 32 SSW 12 19 29.76 1008 10 16.0934 N/A
12:51 pm 12:51 Sunny 94 34.4 56 13.3 28 28 S 9 15 29.74 1007 10 16.0934 N/A
1:51 pm 13:51 Sunny 96 35.6 53 11.7 23 23 WSW 12 19 29.71 1006 10 16.0934 N/A
2:51 pm 14:51 Sunny 95 35 52 11.1 23 23 VRB 3 6 29.69 1005 10 16.0934 N/A
3:51 pm 15:51 Sunny 97 36.1 51 10.6 21 21 SSW 7 11 29.67 1005 10 16.0934 N/A
4:03 pm 16:03 Partly Cloudy with Nearby Thunderstorms 96 35.6 50 10 21 21 WSW 6 9 29.56 1001 10 16.0934 N/A
4:31 pm 16:31 Mostly Cloudy 91 32.8 55 12.8 30 30 NNE 24 39 29.62 1003 10 16.0934 N/A
4:51 pm 16:51 Mostly Cloudy 91 32.8 54 12.2 28 28 NNE 21 33 29.71 1006 10 16.0934 N/A
5:51 pm 17:51 Mostly Sunny 92 33.3 47 8.3 21 21 N 12 19 29.7 1006 10 16.0934 N/A
6:51 pm 18:51 Sunny 88 31.1 57 13.9 35 35 ESE 15 24 29.74 1007 10 16.0934 N/A
7:51 pm 19:51 Clear 86 30 56 13.3 36 36 E 8 13 29.76 1008 10 16.0934 N/A
8:51 pm 20:51 Clear 85 29.4 55 12.8 36 36 SE 7 11 29.78 1008 10 16.0934 N/A
9:51 pm 21:51 Clear 82 27.8 55 12.8 40 40 E 6 9 29.79 1009 10 16.0934 N/A
10:51 pm 22:51 Clear 82 27.8 56 13.3 41 41 E 8 13 29.79 1009 10 16.0934 N/A
11:51 pm 23:51 Clear 81 27.2 57 13.9 44 44 E 7 11 29.8 1009 10 16.0934 N/A

Powered by AerisWeather